{"data":{"norad_id":64023,"epoch":"2026-09-20T13:44:52.160352Z","epoch_age_seconds":137290,"freshness":"FRESH","line1":"1 64023U 25102B   26263.57282593  .00006375  00000+0  22598-3 0  9994","line2":"2 64023  70.0010 340.7000 0003347 268.0142  92.0650 15.29584357 75215","mean_motion":15.29584357,"eccentricity":0.0003347,"inclination_deg":70.001,"raan_deg":340.7,"arg_perigee_deg":268.0142,"mean_anomaly_deg":92.065,"bstar":0.00022598,"rev_number":7521,"period_min":94.143222203468,"perigee_km":474.75945257803,"apogee_km":479.34831735643,"semimajor_km":6855.1908849672,"source":"CELESTRAK","updated_at":"2026-09-21T09:00:35.185842Z"}}